{"data":{"norad_id":68576,"intl_designator":"2026-072D","name":"KUIPER-00193","alt_names":[],"object_type":"PAYLOAD","status":"ACTIVE","operator":null,"country":"US","launch_date":"2026-04-04","launch_site_code":"AFETR","launch_vehicle":null,"mission":null,"orbit_class":"UNKNOWN","rcs_meters":null,"size_class":null,"mass_kg":null,"dimensions":null,"purposes":[],"wikipedia_slug":null,"has_3d_model":false,"image_url":null,"decayed_at":null,"tle_current":{"epoch":"2026-05-25T04:00:03.998880Z","epoch_age_seconds":60365,"freshness":"FRESH","line1":"1 68576U 26072D   26145.16671295 -.01222394  00000+0 -48337-1 0  9994","line2":"2 68576  51.8805 288.4077 0002635 271.3534 212.7597 15.27779595  5126","mean_motion":15.27779595,"eccentricity":0.0002635,"inclination_deg":51.8805,"raan_deg":288.4077,"arg_perigee_deg":271.3534,"mean_anomaly_deg":212.7597,"bstar":-0.048337,"rev_number":512,"period_min":94.254433343181,"perigee_km":480.64373680351,"apogee_km":484.259266944,"semimajor_km":6860.5885018738,"source":"CELESTRAK","updated_at":"2026-05-25T13:38:07.945262Z"}}}